WetterOnline ( https://www.wetteronline.de )

Wetter aktuell Duisburg

Aktuelles Wetter: Essen (161m)

6-stündlich | Neueste Meldungen
Ortszeit Temperatur Wetter
Mi, 18.05. 2:00 19.4° C bewölkt
Di, 17.05. 20:00 21.2° C wolkig
Di, 17.05. 14:00 19.3° C bedeckt
Di, 17.05. 8:00 14.8° C bedeckt
Di, 17.05. 2:00 14.2° C wolkenlos
Mo, 16.05. 20:00 18.6° C wolkig
Mo, 16.05. 14:00 25.1° C leicht bewölkt
Mo, 16.05. 8:00 20.0° C wolkig
Ortszeit Temperatur Wetter
Mi, 18.05. 4:30 18.6° C wolkig
Mi, 18.05. 4:20 18.6° C wolkig
Mi, 18.05. 4:10 18.7° C wolkig
Mi, 18.05. 4:00 18.8° C bewölkt
Mi, 18.05. 3:50 18.8° C bewölkt
Mi, 18.05. 3:40 18.7° C bedeckt
Mi, 18.05. 3:30 19.0° C bedeckt
Mi, 18.05. 3:00 19.1° C fast wolkenlos
Mi, 18.05. 2:30 19.4° C leicht bewölkt
Mi, 18.05. 2:00 19.4° C bewölkt
Mi, 18.05. 1:30 19.3° C wolkig
Ortszeit Relative Feuchte Sichtweite
Mi, 18.05. 2:00 65% 55 km
Di, 17.05. 20:00 68% 50 km
Di, 17.05. 14:00 69% 45 km
Di, 17.05. 8:00 88% 19 km
Di, 17.05. 2:00 97% 5.0 km
Mo, 16.05. 20:00 88% 12 km
Mo, 16.05. 14:00 49% 45 km
Mo, 16.05. 8:00 50% 45 km
Ortszeit Relative Feuchte Sichtweite
Mi, 18.05. 4:30 67% 60 km
Mi, 18.05. 4:20 67% -
Mi, 18.05. 4:10 67% -
Mi, 18.05. 4:00 67% 50 km
Mi, 18.05. 3:50 67% -
Mi, 18.05. 3:40 67% -
Mi, 18.05. 3:30 66% 55 km
Mi, 18.05. 3:00 65% 55 km
Mi, 18.05. 2:30 64% 60 km
Mi, 18.05. 2:00 65% 55 km
Mi, 18.05. 1:30 66% 45 km
Ortszeit Niederschlagsmenge Niederschlagsart
Mi, 18.05. 2:00 0.0 l/m2 in 6 Std. -
Di, 17.05. 20:00 0.1 l/m2 in 12 Std. -
Di, 17.05. 14:00 0.1 l/m2 in 6 Std. Regen
Di, 17.05. 8:00 0.0 l/m2 in 12 Std. -
Di, 17.05. 2:00 0.0 l/m2 in 6 Std. -
Mo, 16.05. 20:00 21 l/m2 in 12 Std. Regen
Mo, 16.05. 14:00 0.1 l/m2 in 6 Std. Regen
Mo, 16.05. 8:00 0.0 l/m2 in 12 Std. -
Ortszeit Niederschlagsmenge Niederschlagsart
Mi, 18.05. 4:30 0.0 l/m2 in 1 Std. -
Mi, 18.05. 4:20 keine Meldung -
Mi, 18.05. 4:10 keine Meldung -
Mi, 18.05. 4:00 0.0 l/m2 in 1 Std. -
Mi, 18.05. 3:50 keine Meldung -
Mi, 18.05. 3:40 keine Meldung -
Mi, 18.05. 3:30 0.0 l/m2 in 1 Std. -
Mi, 18.05. 3:00 0.0 l/m2 in 1 Std. -
Mi, 18.05. 2:30 0.0 l/m2 in 1 Std. -
Mi, 18.05. 2:00 0.0 l/m2 in 1 Std. -
Mi, 18.05. 1:30 0.0 l/m2 in 1 Std. -
Ortszeit Stärke Spitze Richtung
km/h Bft. km/h Grad Sektor
Mi, 18.05. 2:00 17 3 30 160° S
Di, 17.05. 20:00 13 3 24 90° O
Di, 17.05. 14:00 6 1 15 110° O
Di, 17.05. 8:00 7 2 14 180° S
Di, 17.05. 2:00 4 1 11 220° SW
Mo, 16.05. 20:00 4 1 36 320° NW
Mo, 16.05. 14:00 9 2 24 240° SW
Mo, 16.05. 8:00 7 2 18 170° S
Ortszeit Stärke Spitze Richtung
km/h Bft. km/h Grad Sektor
Mi, 18.05. 4:30 18 3 29 150° SO
Mi, 18.05. 4:20 18 3 - 150° SO
Mi, 18.05. 4:10 18 3 - 160° S
Mi, 18.05. 4:00 19 3 30 160° S
Mi, 18.05. 3:50 19 3 - 160° S
Mi, 18.05. 3:40 18 3 - 160° S
Mi, 18.05. 3:30 18 3 29 160° S
Mi, 18.05. 3:00 14 3 29 160° S
Mi, 18.05. 2:30 17 3 28 150° SO
Mi, 18.05. 2:00 17 3 30 160° S
Mi, 18.05. 1:30 15 3 26 150° SO
Ortszeit Untergrenze Bedeckung Gattung
total tief tief mittel hoch
Mi, 18.05. 2:00 4800 m 7/8 7/8 - - -
Di, 17.05. 20:00 5100 m 8/8 8/8 - - -
Di, 17.05. 14:00 1290 m 8/8 8/8 - - -
Di, 17.05. 8:00 3000 m 8/8 8/8 - - -
Di, 17.05. 2:00 - 0/8 0/8 - - -
Mo, 16.05. 20:00 960 m 8/8 1/8 - - -
Mo, 16.05. 14:00 3000 m 3/8 3/8 - - -
Mo, 16.05. 8:00 5100 m 8/8 7/8 - - -
Ortszeit Bedeckungsgrad in Achtel und Wolkenuntergrenze
Mi, 18.05. 4:30 6(4800m)
Mi, 18.05. 4:20 6(4800m)
Mi, 18.05. 4:10 6
Mi, 18.05. 4:00 7(4800m) 8(10500m)
Mi, 18.05. 3:50 7(4800m) 8(10500m)
Mi, 18.05. 3:40 8
Mi, 18.05. 3:30 8(4500m)
Mi, 18.05. 3:00 1(5100m)
Mi, 18.05. 2:30 4(5100m)
Mi, 18.05. 2:00 7(4800m)
Mi, 18.05. 1:30 1(1800m) 7(5100m)
Ortszeit Luftdruck NN (hPa) Tendenz (hPa in 3 Std.)
Mi, 18.05. 2:00 1020 0,0
Di, 17.05. 20:00 1019 - 1,0
Di, 17.05. 14:00 1022 - 0,5
Di, 17.05. 8:00 1021 + 0,7
Di, 17.05. 2:00 1021 + 0,8
Mo, 16.05. 20:00 1018 + 1,1
Mo, 16.05. 14:00 1015 + 0,2
Mo, 16.05. 8:00 1014 0,0
Ortszeit Luftdruck NN (hPa) Tendenz (hPa in 3 Std.)
Mi, 18.05. 4:30 1020 + 0,6
Mi, 18.05. 4:20 1020 keine Meldung
Mi, 18.05. 4:10 1020 keine Meldung
Mi, 18.05. 4:00 1020 + 0,6
Mi, 18.05. 3:50 1020 keine Meldung
Mi, 18.05. 3:40 1020 keine Meldung
Mi, 18.05. 3:30 1020 + 0,5
Mi, 18.05. 3:00 1020 + 0,4
Mi, 18.05. 2:30 1020 + 0,2
Mi, 18.05. 2:00 1020 0,0
Mi, 18.05. 1:30 1020 + 0,1
Ortszeit Schneehöhe (cm)
Mi, 18.05. 2:00 0
Di, 17.05. 20:00 0
Di, 17.05. 14:00 0
Di, 17.05. 8:00 0
Di, 17.05. 2:00 0
Mo, 16.05. 20:00 0
Mo, 16.05. 14:00 0
Mo, 16.05. 8:00 0
Ortszeit Schneehöhe (cm)
Mi, 18.05. 4:30 0
Mi, 18.05. 4:20 0
Mi, 18.05. 4:10 0
Mi, 18.05. 4:00 0
Mi, 18.05. 3:50 0
Mi, 18.05. 3:40 0
Mi, 18.05. 3:30 0
Mi, 18.05. 3:00 0
Mi, 18.05. 2:30 0
Mi, 18.05. 2:00 0
Mi, 18.05. 1:30 0
Link zu dieser Seite / Seite empfehlen

Das Wetter in ...